Year,Month,Day,Hour,Minute,Value (Times are PST for windspeed in km/hr)
2010,04,03,00,00,20.20
2010,04,03,00,01,15.70
2010,04,03,00,02,22.00
2010,04,03,00,03,25.20
2010,04,03,00,04,15.50
2010,04,03,00,05,25.80
2010,04,03,00,06,27.50
2010,04,03,00,07,25.80
2010,04,03,00,08,27.80
2010,04,03,00,09,30.00
2010,04,03,00,10,16.30
2010,04,03,00,11,18.70
2010,04,03,00,12,23.10
2010,04,03,00,13,29.30
2010,04,03,00,14,24.80
2010,04,03,00,15,15.00
2010,04,03,00,16,16.50
2010,04,03,00,17,14.20
2010,04,03,00,18,15.40
2010,04,03,00,19,16.20
2010,04,03,00,20,21.60
2010,04,03,00,21,20.00
2010,04,03,00,22,16.10
2010,04,03,00,23,19.30
2010,04,03,00,24,16.80
2010,04,03,00,25,19.50
2010,04,03,00,26,23.70
2010,04,03,00,27,25.70
2010,04,03,00,28,24.00
2010,04,03,00,29,24.50
2010,04,03,00,30,23.90
2010,04,03,00,31,19.70
2010,04,03,00,32,17.40
2010,04,03,00,33,22.20
2010,04,03,00,34,26.10
2010,04,03,00,35,26.00
2010,04,03,00,36,20.20
2010,04,03,00,37,20.30
2010,04,03,00,38,18.10
2010,04,03,00,39,24.10
2010,04,03,00,40,16.00
2010,04,03,00,41,24.50
2010,04,03,00,42,27.30
2010,04,03,00,43,25.00
2010,04,03,00,44,25.70
2010,04,03,00,45,19.70
2010,04,03,00,46,27.60
2010,04,03,00,47,17.70
2010,04,03,00,48,15.20
2010,04,03,00,49,18.40
2010,04,03,00,50,19.50
2010,04,03,00,51,26.10
2010,04,03,00,52,25.40
2010,04,03,00,53,27.80
2010,04,03,00,54,17.90
2010,04,03,00,55,20.40
2010,04,03,00,56,13.80
2010,04,03,00,57,21.40
2010,04,03,00,58,27.80
2010,04,03,00,59,20.10
2010,04,03,01,00,13.80
2010,04,03,01,01,23.30
2010,04,03,01,02,17.20
2010,04,03,01,03,22.40
2010,04,03,01,04,26.10
2010,04,03,01,05,19.10
2010,04,03,01,06,12.70
2010,04,03,01,07,16.80
2010,04,03,01,08,18.30
2010,04,03,01,09,16.30
2010,04,03,01,10,18.10
2010,04,03,01,11,15.00
2010,04,03,01,12,23.90
2010,04,03,01,13,15.30
2010,04,03,01,14,24.80
2010,04,03,01,15,26.60
2010,04,03,01,16,25.80
2010,04,03,01,17,13.60
2010,04,03,01,18,21.00
2010,04,03,01,19,15.20
2010,04,03,01,20,16.60
2010,04,03,01,21,16.70
2010,04,03,01,22,16.30
2010,04,03,01,23,19.00
2010,04,03,01,24,16.20
2010,04,03,01,25,14.00
2010,04,03,01,26,16.30
2010,04,03,01,27,8.40
2010,04,03,01,28,9.00
2010,04,03,01,29,14.10
2010,04,03,01,30,13.30
2010,04,03,01,31,11.40
2010,04,03,01,32,10.50
2010,04,03,01,33,15.00
2010,04,03,01,34,21.00
2010,04,03,01,35,15.80
2010,04,03,01,36,18.20
2010,04,03,01,37,16.70
2010,04,03,01,38,9.30
2010,04,03,01,39,11.20
2010,04,03,01,40,18.50
2010,04,03,01,41,16.70
2010,04,03,01,42,19.60
2010,04,03,01,43,11.70
2010,04,03,01,44,8.00
2010,04,03,01,45,13.70
2010,04,03,01,46,16.40
2010,04,03,01,47,14.70
2010,04,03,01,48,13.90
2010,04,03,01,49,12.60
2010,04,03,01,50,12.30
2010,04,03,01,51,17.20
2010,04,03,01,52,14.20
2010,04,03,01,53,14.90
2010,04,03,01,54,21.10
2010,04,03,01,55,15.40
2010,04,03,01,56,16.10
2010,04,03,01,57,14.70
2010,04,03,01,58,10.90
2010,04,03,01,59,16.90
2010,04,03,02,00,10.30
2010,04,03,02,01,11.10
2010,04,03,02,02,13.40
2010,04,03,02,03,13.80
2010,04,03,02,04,19.80
2010,04,03,02,05,21.20
2010,04,03,02,06,12.50
2010,04,03,02,07,11.30
2010,04,03,02,08,14.60
2010,04,03,02,09,15.90
2010,04,03,02,10,19.70
2010,04,03,02,11,16.40
2010,04,03,02,12,17.10
2010,04,03,02,13,18.40
2010,04,03,02,14,25.60
2010,04,03,02,15,22.90
2010,04,03,02,16,20.30
2010,04,03,02,17,18.40
2010,04,03,02,18,18.00
2010,04,03,02,19,21.30
2010,04,03,02,20,21.60
2010,04,03,02,21,9.40
2010,04,03,02,22,20.10
2010,04,03,02,23,21.70
2010,04,03,02,24,13.00
2010,04,03,02,25,19.80
2010,04,03,02,26,23.90
2010,04,03,02,27,22.90
2010,04,03,02,28,22.90
2010,04,03,02,29,17.70
2010,04,03,02,30,16.30
2010,04,03,02,31,17.00
2010,04,03,02,32,12.40
2010,04,03,02,33,10.80
2010,04,03,02,34,16.90
2010,04,03,02,35,25.30
2010,04,03,02,36,17.40
2010,04,03,02,37,11.60
2010,04,03,02,38,21.40
2010,04,03,02,39,19.70
2010,04,03,02,40,15.20
2010,04,03,02,41,25.40
2010,04,03,02,42,22.40
2010,04,03,02,43,17.00
2010,04,03,02,44,24.60
2010,04,03,02,45,23.90
2010,04,03,02,46,25.00
2010,04,03,02,47,16.10
2010,04,03,02,48,19.90
2010,04,03,02,49,18.50
2010,04,03,02,50,22.00
2010,04,03,02,51,14.40
2010,04,03,02,52,16.80
2010,04,03,02,53,25.50
2010,04,03,02,54,18.70
2010,04,03,02,55,22.40
2010,04,03,02,56,15.60
2010,04,03,02,57,13.10
2010,04,03,02,58,11.00
2010,04,03,02,59,20.50
2010,04,03,03,00,14.70
2010,04,03,03,01,16.10
2010,04,03,03,02,14.90
2010,04,03,03,03,13.50
2010,04,03,03,04,22.60
2010,04,03,03,05,22.70
2010,04,03,03,06,16.10
2010,04,03,03,07,15.80
2010,04,03,03,08,21.80
2010,04,03,03,09,27.60
2010,04,03,03,10,29.20
2010,04,03,03,11,17.50
2010,04,03,03,12,20.30
2010,04,03,03,13,13.60
2010,04,03,03,14,10.10
2010,04,03,03,15,12.10
2010,04,03,03,16,13.70
2010,04,03,03,17,15.10
2010,04,03,03,18,13.40
2010,04,03,03,19,7.70
2010,04,03,03,20,15.20
2010,04,03,03,21,4.80
2010,04,03,03,22,11.60
2010,04,03,03,23,15.00
2010,04,03,03,24,14.20
2010,04,03,03,25,9.40
2010,04,03,03,26,9.30
2010,04,03,03,27,10.90
2010,04,03,03,28,8.60
2010,04,03,03,29,19.10
2010,04,03,03,30,18.40
2010,04,03,03,31,24.80
2010,04,03,03,32,13.90
2010,04,03,03,33,12.80
2010,04,03,03,34,13.80
2010,04,03,03,35,23.50
2010,04,03,03,36,18.60
2010,04,03,03,37,16.30
2010,04,03,03,38,23.50
2010,04,03,03,39,16.80
2010,04,03,03,40,20.80
2010,04,03,03,41,27.80
2010,04,03,03,42,19.40
2010,04,03,03,43,21.20
2010,04,03,03,44,12.00
2010,04,03,03,45,12.60
2010,04,03,03,46,24.60
2010,04,03,03,47,26.80
2010,04,03,03,48,25.50
2010,04,03,03,49,23.30
2010,04,03,03,50,26.20
2010,04,03,03,51,23.80
2010,04,03,03,52,19.20
2010,04,03,03,53,17.00
2010,04,03,03,54,24.40
2010,04,03,03,55,20.90
2010,04,03,03,56,15.80
2010,04,03,03,57,24.10
2010,04,03,03,58,15.50
2010,04,03,03,59,18.10
2010,04,03,04,00,19.20
2010,04,03,04,01,13.50
2010,04,03,04,02,16.00
2010,04,03,04,03,16.30
2010,04,03,04,04,7.80
2010,04,03,04,05,20.20
2010,04,03,04,06,16.00
2010,04,03,04,07,14.60
2010,04,03,04,08,17.20
2010,04,03,04,09,16.00
2010,04,03,04,10,18.60
2010,04,03,04,11,10.80
2010,04,03,04,12,17.80
2010,04,03,04,13,12.40
2010,04,03,04,14,11.70
2010,04,03,04,15,14.50
2010,04,03,04,16,15.60
2010,04,03,04,17,14.90
2010,04,03,04,18,18.20
2010,04,03,04,19,15.50
2010,04,03,04,20,28.10
2010,04,03,04,21,27.10
2010,04,03,04,22,27.70
2010,04,03,04,23,34.80
2010,04,03,04,24,30.20
2010,04,03,04,25,25.20
2010,04,03,04,26,26.00
2010,04,03,04,27,29.50
2010,04,03,04,28,27.40
2010,04,03,04,29,25.00
2010,04,03,04,30,27.40
2010,04,03,04,31,27.60
2010,04,03,04,32,22.60
2010,04,03,04,33,30.50
2010,04,03,04,34,16.80
2010,04,03,04,35,22.80
2010,04,03,04,36,24.50
2010,04,03,04,37,23.90
2010,04,03,04,38,23.20
2010,04,03,04,39,24.60
2010,04,03,04,40,16.30
2010,04,03,04,41,15.80
2010,04,03,04,42,20.70
2010,04,03,04,43,13.90
2010,04,03,04,44,13.50
2010,04,03,04,45,12.30
2010,04,03,04,46,12.10
2010,04,03,04,47,15.80
2010,04,03,04,48,10.10
2010,04,03,04,49,13.90
2010,04,03,04,50,8.70
2010,04,03,04,51,10.20
2010,04,03,04,52,12.90
2010,04,03,04,53,10.00
2010,04,03,04,54,8.60
2010,04,03,04,55,8.70
2010,04,03,04,56,14.20
2010,04,03,04,57,14.10
2010,04,03,04,58,15.10
2010,04,03,04,59,9.70
2010,04,03,05,00,12.90
2010,04,03,05,01,10.80
2010,04,03,05,02,19.30
2010,04,03,05,03,9.70
2010,04,03,05,04,16.50
2010,04,03,05,05,18.10
2010,04,03,05,06,12.90
2010,04,03,05,07,8.20
2010,04,03,05,08,12.90
2010,04,03,05,09,12.20
2010,04,03,05,10,10.30
2010,04,03,05,11,15.00
2010,04,03,05,12,15.50
2010,04,03,05,13,14.40
2010,04,03,05,14,11.70
2010,04,03,05,15,10.20
2010,04,03,05,16,10.00
2010,04,03,05,17,15.10
2010,04,03,05,18,17.10
2010,04,03,05,19,7.20
2010,04,03,05,20,11.50
2010,04,03,05,21,14.40
2010,04,03,05,22,13.50
2010,04,03,05,23,15.40
2010,04,03,05,24,15.20
2010,04,03,05,25,20.60
2010,04,03,05,26,15.60
2010,04,03,05,27,16.30
2010,04,03,05,28,19.20
2010,04,03,05,29,15.90
2010,04,03,05,30,13.30
2010,04,03,05,31,22.10
2010,04,03,05,32,17.00
2010,04,03,05,33,13.60
2010,04,03,05,34,6.30
2010,04,03,05,35,10.70
2010,04,03,05,36,18.50
2010,04,03,05,37,15.50
2010,04,03,05,38,12.80
2010,04,03,05,39,13.10
2010,04,03,05,40,8.40
2010,04,03,05,41,10.90
2010,04,03,05,42,13.40
2010,04,03,05,43,11.30
2010,04,03,05,44,7.40
2010,04,03,05,45,8.60
2010,04,03,05,46,10.00
2010,04,03,05,47,6.00
2010,04,03,05,48,11.60
2010,04,03,05,49,6.40
2010,04,03,05,50,10.60
2010,04,03,05,51,9.90
2010,04,03,05,52,8.20
2010,04,03,05,53,9.20
2010,04,03,05,54,7.30
2010,04,03,05,55,10.80
2010,04,03,05,56,9.60
2010,04,03,05,57,7.10
2010,04,03,05,58,9.10
2010,04,03,05,59,17.00
2010,04,03,06,00,11.70
2010,04,03,06,01,10.50
2010,04,03,06,02,9.80
2010,04,03,06,03,9.60
2010,04,03,06,04,8.30
2010,04,03,06,05,10.00
2010,04,03,06,06,12.40
2010,04,03,06,07,12.40
2010,04,03,06,08,10.30
2010,04,03,06,09,8.80
2010,04,03,06,10,8.50
2010,04,03,06,11,17.30
2010,04,03,06,12,13.50
2010,04,03,06,13,12.20
2010,04,03,06,14,16.90
2010,04,03,06,15,11.50
2010,04,03,06,16,9.20
2010,04,03,06,17,9.30
2010,04,03,06,18,11.40
2010,04,03,06,19,9.60
2010,04,03,06,20,8.90
2010,04,03,06,21,8.80
2010,04,03,06,22,9.70
2010,04,03,06,23,14.20
2010,04,03,06,24,17.20
2010,04,03,06,25,14.30
2010,04,03,06,26,15.40
2010,04,03,06,27,15.20
2010,04,03,06,28,14.60
2010,04,03,06,29,15.40
2010,04,03,06,30,10.90
2010,04,03,06,31,16.30
2010,04,03,06,32,14.70
2010,04,03,06,33,19.70
2010,04,03,06,34,20.80
2010,04,03,06,35,17.70
2010,04,03,06,36,14.50
2010,04,03,06,37,12.40
2010,04,03,06,38,14.10
2010,04,03,06,39,12.20
2010,04,03,06,40,11.60
2010,04,03,06,41,12.50
2010,04,03,06,42,9.70
2010,04,03,06,43,8.60
2010,04,03,06,44,20.60
2010,04,03,06,45,16.90
2010,04,03,06,46,16.80
2010,04,03,06,47,11.00
2010,04,03,06,48,8.60
2010,04,03,06,49,14.20
2010,04,03,06,50,14.90
2010,04,03,06,51,11.50
2010,04,03,06,52,15.20
2010,04,03,06,53,15.60
2010,04,03,06,54,15.50
2010,04,03,06,55,9.30
2010,04,03,06,56,11.40
2010,04,03,06,57,10.40
2010,04,03,06,58,9.20
2010,04,03,06,59,5.50
2010,04,03,07,00,5.80
2010,04,03,07,01,10.30
2010,04,03,07,02,7.50
2010,04,03,07,03,14.50
2010,04,03,07,04,14.30
2010,04,03,07,05,11.50
2010,04,03,07,06,8.10
2010,04,03,07,07,8.90
2010,04,03,07,08,10.80
2010,04,03,07,09,15.20
2010,04,03,07,10,13.60
2010,04,03,07,11,7.70
2010,04,03,07,12,16.00
2010,04,03,07,13,12.10
2010,04,03,07,14,19.60
2010,04,03,07,15,10.90
2010,04,03,07,16,8.90
2010,04,03,07,17,8.70
2010,04,03,07,18,12.10
2010,04,03,07,19,9.70
2010,04,03,07,20,7.50
2010,04,03,07,21,10.40
2010,04,03,07,22,14.60
2010,04,03,07,23,10.70
2010,04,03,07,24,7.30
2010,04,03,07,25,9.30
2010,04,03,07,26,12.70
2010,04,03,07,27,6.70
2010,04,03,07,28,12.70
2010,04,03,07,29,15.40
2010,04,03,07,30,10.10
2010,04,03,07,31,10.60
2010,04,03,07,32,15.30
2010,04,03,07,33,11.10
2010,04,03,07,34,20.50
2010,04,03,07,35,20.10
2010,04,03,07,36,10.70
2010,04,03,07,37,15.00
2010,04,03,07,38,16.60
2010,04,03,07,39,12.50
2010,04,03,07,40,16.40
2010,04,03,07,41,20.00
2010,04,03,07,42,16.40
2010,04,03,07,43,6.40
2010,04,03,07,44,11.40
2010,04,03,07,45,7.90
2010,04,03,07,46,6.40
2010,04,03,07,47,6.30
2010,04,03,07,48,7.20
2010,04,03,07,49,8.50
2010,04,03,07,50,19.80
2010,04,03,07,51,11.70
2010,04,03,07,52,11.80
2010,04,03,07,53,8.60
2010,04,03,07,54,15.80
2010,04,03,07,55,12.50
2010,04,03,07,56,8.40
2010,04,03,07,57,7.90
2010,04,03,07,58,18.00
2010,04,03,07,59,17.50
2010,04,03,08,00,23.70
2010,04,03,08,01,16.00
2010,04,03,08,02,10.20
2010,04,03,08,03,15.90
2010,04,03,08,04,17.90
2010,04,03,08,05,24.10
2010,04,03,08,06,19.50
2010,04,03,08,07,25.10
2010,04,03,08,08,12.90
2010,04,03,08,09,15.40
2010,04,03,08,10,13.60
2010,04,03,08,11,19.00
2010,04,03,08,12,22.50
2010,04,03,08,13,12.60
2010,04,03,08,14,22.40
2010,04,03,08,15,17.50
2010,04,03,08,16,19.30
2010,04,03,08,17,14.30
2010,04,03,08,18,11.30
2010,04,03,08,19,11.90
2010,04,03,08,20,8.80
2010,04,03,08,21,8.40
2010,04,03,08,22,5.40
2010,04,03,08,23,7.30
2010,04,03,08,24,12.00
2010,04,03,08,25,12.10
2010,04,03,08,26,9.60
2010,04,03,08,27,7.70
2010,04,03,08,28,10.50
2010,04,03,08,29,10.90
2010,04,03,08,30,8.00
2010,04,03,08,31,5.20
2010,04,03,08,32,3.80
2010,04,03,08,33,16.00
2010,04,03,08,34,9.80
2010,04,03,08,35,13.50
2010,04,03,08,36,7.70
2010,04,03,08,37,16.00
2010,04,03,08,38,12.00
2010,04,03,08,39,10.70
2010,04,03,08,40,10.80
2010,04,03,08,41,8.70
2010,04,03,08,42,16.90
2010,04,03,08,43,12.90
2010,04,03,08,44,12.40
2010,04,03,08,45,10.10
2010,04,03,08,46,10.20
2010,04,03,08,47,13.80
2010,04,03,08,48,11.10
2010,04,03,08,49,13.60
2010,04,03,08,50,8.60
2010,04,03,08,51,7.50
2010,04,03,08,52,8.80
2010,04,03,08,53,8.20
2010,04,03,08,54,7.20
2010,04,03,08,55,2.70
2010,04,03,08,56,4.50
2010,04,03,08,57,2.50
2010,04,03,08,58,2.20
2010,04,03,08,59,3.50
2010,04,03,09,00,2.10
2010,04,03,09,01,4.80
2010,04,03,09,02,5.40
2010,04,03,09,03,10.80
2010,04,03,09,04,7.90
2010,04,03,09,05,10.20
2010,04,03,09,06,8.20
2010,04,03,09,07,13.20
2010,04,03,09,08,5.50
2010,04,03,09,09,6.40
2010,04,03,09,10,5.80
2010,04,03,09,11,4.20
2010,04,03,09,12,5.30
2010,04,03,09,13,4.30
2010,04,03,09,14,2.60
2010,04,03,09,15,1.00
2010,04,03,09,16,3.70
2010,04,03,09,17,5.60
2010,04,03,09,18,5.90
2010,04,03,09,19,0.80
2010,04,03,09,20,3.50
2010,04,03,09,21,0.40
2010,04,03,09,22,1.90
2010,04,03,09,23,6.20
2010,04,03,09,24,3.70
2010,04,03,09,25,0.10
2010,04,03,09,26,0.70
2010,04,03,09,27,1.40
2010,04,03,09,28,5.90
2010,04,03,09,29,4.40
2010,04,03,09,30,6.70
2010,04,03,09,31,10.90
2010,04,03,09,32,12.50
2010,04,03,09,33,12.90
2010,04,03,09,34,8.90
2010,04,03,09,35,12.50
2010,04,03,09,36,11.20
2010,04,03,09,37,11.10
2010,04,03,09,38,14.10
2010,04,03,09,39,12.80
2010,04,03,09,40,11.90
2010,04,03,09,41,12.20
2010,04,03,09,42,11.60
2010,04,03,09,43,14.20
2010,04,03,09,44,14.60
2010,04,03,09,45,10.90
2010,04,03,09,46,10.70
2010,04,03,09,47,11.90
2010,04,03,09,48,9.20
2010,04,03,09,49,9.70
2010,04,03,09,50,16.30
2010,04,03,09,51,14.20
2010,04,03,09,52,10.50
2010,04,03,09,53,9.90
2010,04,03,09,54,9.70
2010,04,03,09,55,9.50
2010,04,03,09,56,18.50
2010,04,03,09,57,13.00
2010,04,03,09,58,16.40
2010,04,03,09,59,9.30
2010,04,03,10,00,5.00
2010,04,03,10,01,9.90
2010,04,03,10,02,12.70
2010,04,03,10,03,7.60
2010,04,03,10,04,8.40
2010,04,03,10,05,7.00
2010,04,03,10,06,9.60
2010,04,03,10,07,7.10
2010,04,03,10,08,10.40
2010,04,03,10,09,11.30
2010,04,03,10,10,12.00
2010,04,03,10,11,13.80
2010,04,03,10,12,10.90
2010,04,03,10,13,13.90
2010,04,03,10,14,8.80
2010,04,03,10,15,12.40
2010,04,03,10,16,17.30
2010,04,03,10,17,11.30
2010,04,03,10,18,18.00
2010,04,03,10,19,15.90
2010,04,03,10,20,11.10
2010,04,03,10,21,17.00
2010,04,03,10,22,16.70
2010,04,03,10,23,17.40
2010,04,03,10,24,13.20
2010,04,03,10,25,8.40
2010,04,03,10,26,13.00
2010,04,03,10,27,8.60
2010,04,03,10,28,10.00
2010,04,03,10,29,7.80
2010,04,03,10,30,7.80
2010,04,03,10,31,7.40
2010,04,03,10,32,5.30
2010,04,03,10,33,11.90
2010,04,03,10,34,10.40
2010,04,03,10,35,16.70
2010,04,03,10,36,10.50
2010,04,03,10,37,9.40
2010,04,03,10,38,12.20
2010,04,03,10,39,12.90
2010,04,03,10,40,9.10
2010,04,03,10,41,10.20
2010,04,03,10,42,8.70
2010,04,03,10,43,9.20
2010,04,03,10,44,4.60
2010,04,03,10,45,4.50
2010,04,03,10,46,3.80
2010,04,03,10,47,3.90
2010,04,03,10,48,9.60
2010,04,03,10,49,10.50
2010,04,03,10,50,8.50
2010,04,03,10,51,10.00
2010,04,03,10,52,8.80
2010,04,03,10,53,7.90
2010,04,03,10,54,3.60
2010,04,03,10,55,5.80
2010,04,03,10,56,7.10
2010,04,03,10,57,6.50
2010,04,03,10,58,8.10
2010,04,03,10,59,6.60
2010,04,03,11,00,2.70
2010,04,03,11,01,1.40
2010,04,03,11,02,2.70
2010,04,03,11,03,4.70
2010,04,03,11,04,7.20
2010,04,03,11,05,5.90
2010,04,03,11,06,4.30
2010,04,03,11,07,5.70
2010,04,03,11,08,2.50
2010,04,03,11,09,2.80
2010,04,03,11,10,3.40
2010,04,03,11,11,1.00
2010,04,03,11,12,0.30
2010,04,03,11,13,1.50
2010,04,03,11,14,0.50
2010,04,03,11,15,0.60
2010,04,03,11,16,2.00
2010,04,03,11,17,4.70
2010,04,03,11,18,2.80
2010,04,03,11,19,0.30
2010,04,03,11,20,0.40
2010,04,03,11,21,1.40
2010,04,03,11,22,0.30
2010,04,03,11,23,1.40
2010,04,03,11,24,4.70
2010,04,03,11,25,1.70
2010,04,03,11,26,0.00
2010,04,03,11,27,0.00
2010,04,03,11,28,3.70
2010,04,03,11,29,0.70
2010,04,03,11,30,7.20
2010,04,03,11,31,5.60
2010,04,03,11,32,5.40
2010,04,03,11,33,2.60
2010,04,03,11,34,1.10
2010,04,03,11,35,0.00
2010,04,03,11,36,1.70
2010,04,03,11,37,0.20
2010,04,03,11,38,2.10
2010,04,03,11,39,2.10
2010,04,03,11,40,1.40
2010,04,03,11,41,0.70
2010,04,03,11,42,0.50
2010,04,03,11,43,0.00
2010,04,03,11,44,0.00
2010,04,03,11,45,0.00
2010,04,03,11,46,0.60
2010,04,03,11,47,0.90
2010,04,03,11,48,2.80
2010,04,03,11,49,1.10
2010,04,03,11,50,0.60
2010,04,03,11,51,4.10
2010,04,03,11,52,0.80
2010,04,03,11,53,4.00
2010,04,03,11,54,2.90
2010,04,03,11,55,5.90
2010,04,03,11,56,7.00
2010,04,03,11,57,7.40
2010,04,03,11,58,3.80
2010,04,03,11,59,7.20
2010,04,03,12,00,5.50
2010,04,03,12,01,3.00
2010,04,03,12,02,4.10
2010,04,03,12,03,6.20
2010,04,03,12,04,3.00
2010,04,03,12,05,2.80
2010,04,03,12,06,3.50
2010,04,03,12,07,2.40
2010,04,03,12,08,4.10
2010,04,03,12,09,4.30
2010,04,03,12,10,5.80
2010,04,03,12,11,6.90
2010,04,03,12,12,5.40
2010,04,03,12,13,5.80
2010,04,03,12,14,5.20
2010,04,03,12,15,3.50
2010,04,03,12,16,3.60
2010,04,03,12,17,4.90
2010,04,03,12,18,6.60
2010,04,03,12,19,3.40
2010,04,03,12,20,5.00
2010,04,03,12,21,5.50
2010,04,03,12,22,8.30
2010,04,03,12,23,6.80
2010,04,03,12,24,5.60
2010,04,03,12,25,3.70
2010,04,03,12,26,3.50
2010,04,03,12,27,4.20
2010,04,03,12,28,2.50
2010,04,03,12,29,5.50
2010,04,03,12,30,3.30
2010,04,03,12,31,3.60
2010,04,03,12,32,3.90
2010,04,03,12,33,7.10
2010,04,03,12,34,4.10
2010,04,03,12,35,5.80
2010,04,03,12,36,6.00
2010,04,03,12,37,3.80
2010,04,03,12,38,3.40
2010,04,03,12,39,4.90
2010,04,03,12,40,6.80
2010,04,03,12,41,6.70
2010,04,03,12,42,6.90
2010,04,03,12,43,6.00
2010,04,03,12,44,6.60
2010,04,03,12,45,5.40
2010,04,03,12,46,5.70
2010,04,03,12,47,2.80
2010,04,03,12,48,3.70
2010,04,03,12,49,2.70
2010,04,03,12,50,5.40
2010,04,03,12,51,5.40
2010,04,03,12,52,6.10
2010,04,03,12,53,8.80
2010,04,03,12,54,6.40
2010,04,03,12,55,5.80
2010,04,03,12,56,4.70
2010,04,03,12,57,8.00
2010,04,03,12,58,9.20
2010,04,03,12,59,11.40
2010,04,03,13,00,13.70
2010,04,03,13,01,8.30
2010,04,03,13,02,7.50
2010,04,03,13,03,11.60
2010,04,03,13,04,8.60
2010,04,03,13,05,5.90
2010,04,03,13,06,5.80
2010,04,03,13,07,6.30
2010,04,03,13,08,7.60
2010,04,03,13,09,7.40
2010,04,03,13,10,6.80
2010,04,03,13,11,8.00
2010,04,03,13,12,11.30
2010,04,03,13,13,12.20
2010,04,03,13,14,14.00
2010,04,03,13,15,9.60
2010,04,03,13,16,9.70
2010,04,03,13,17,9.50
2010,04,03,13,18,8.40
2010,04,03,13,19,6.00
2010,04,03,13,20,5.20
2010,04,03,13,21,3.40
2010,04,03,13,22,6.20
2010,04,03,13,23,8.10
2010,04,03,13,24,10.20
2010,04,03,13,25,9.50
2010,04,03,13,26,8.60
2010,04,03,13,27,7.50
2010,04,03,13,28,5.20
2010,04,03,13,29,5.60
2010,04,03,13,30,5.40
2010,04,03,13,31,9.30
2010,04,03,13,32,7.00
2010,04,03,13,33,9.10
2010,04,03,13,34,5.40
2010,04,03,13,35,6.80
2010,04,03,13,36,9.20
2010,04,03,13,37,7.10
2010,04,03,13,38,3.40
2010,04,03,13,39,6.90
2010,04,03,13,40,8.10
2010,04,03,13,41,9.00
2010,04,03,13,42,6.00
2010,04,03,13,43,6.60
2010,04,03,13,44,9.00
2010,04,03,13,45,15.60
2010,04,03,13,46,11.40
2010,04,03,13,47,9.00
2010,04,03,13,48,9.30
2010,04,03,13,49,6.00
2010,04,03,13,50,6.00
2010,04,03,13,51,10.30
2010,04,03,13,52,6.40
2010,04,03,13,53,6.90
2010,04,03,13,54,11.60
2010,04,03,13,55,12.00
2010,04,03,13,56,6.60
2010,04,03,13,57,5.00
2010,04,03,13,58,6.10
2010,04,03,13,59,8.70
2010,04,03,14,00,11.70
2010,04,03,14,01,11.60
2010,04,03,14,02,12.00
2010,04,03,14,03,10.50
2010,04,03,14,04,6.50
2010,04,03,14,05,7.30
2010,04,03,14,06,10.20
2010,04,03,14,07,7.10
2010,04,03,14,08,4.90
2010,04,03,14,09,7.80
2010,04,03,14,10,14.90
2010,04,03,14,11,9.20
2010,04,03,14,12,10.70
2010,04,03,14,13,8.50
2010,04,03,14,14,6.70
2010,04,03,14,15,9.00
2010,04,03,14,16,9.30
2010,04,03,14,17,11.70
2010,04,03,14,18,9.30
2010,04,03,14,19,8.60
2010,04,03,14,20,6.80
2010,04,03,14,21,4.40
2010,04,03,14,22,3.10
2010,04,03,14,23,6.60
2010,04,03,14,24,6.00
2010,04,03,14,25,5.00
2010,04,03,14,26,7.40
2010,04,03,14,27,11.00
2010,04,03,14,28,5.80
2010,04,03,14,29,7.70
2010,04,03,14,30,5.10
2010,04,03,14,31,6.30
2010,04,03,14,32,10.20
2010,04,03,14,33,8.30
2010,04,03,14,34,7.50
2010,04,03,14,35,4.30
2010,04,03,14,36,6.80
2010,04,03,14,37,7.10
2010,04,03,14,38,10.30
2010,04,03,14,39,5.70
2010,04,03,14,40,5.70
2010,04,03,14,41,6.10
2010,04,03,14,42,4.40
2010,04,03,14,43,11.20
2010,04,03,14,44,7.80
2010,04,03,14,45,4.90
2010,04,03,14,46,5.10
2010,04,03,14,47,8.70
2010,04,03,14,48,7.60
2010,04,03,14,49,7.50
2010,04,03,14,50,4.00
2010,04,03,14,51,9.70
2010,04,03,14,52,9.20
2010,04,03,14,53,7.50
2010,04,03,14,54,4.30
2010,04,03,14,55,4.60
2010,04,03,14,56,5.80
2010,04,03,14,57,4.90
2010,04,03,14,58,6.40
2010,04,03,14,59,8.10
2010,04,03,15,00,3.30
2010,04,03,15,01,5.90
2010,04,03,15,02,9.20
2010,04,03,15,03,7.20
2010,04,03,15,04,8.90
2010,04,03,15,05,4.90
2010,04,03,15,06,10.60
2010,04,03,15,07,8.80
2010,04,03,15,08,7.50
2010,04,03,15,09,4.70
2010,04,03,15,10,12.50
2010,04,03,15,11,5.60
2010,04,03,15,12,8.00
2010,04,03,15,13,11.00
2010,04,03,15,14,10.60
2010,04,03,15,15,5.00
2010,04,03,15,16,7.90
2010,04,03,15,17,12.10
2010,04,03,15,18,5.70
2010,04,03,15,19,8.80
2010,04,03,15,20,11.90
2010,04,03,15,21,12.10
2010,04,03,15,22,14.10
2010,04,03,15,23,10.90
2010,04,03,15,24,15.00
2010,04,03,15,25,9.30
2010,04,03,15,26,11.60
2010,04,03,15,27,13.00
2010,04,03,15,28,10.50
2010,04,03,15,29,12.10
2010,04,03,15,30,7.40
2010,04,03,15,31,12.60
2010,04,03,15,32,11.70
2010,04,03,15,33,11.60
2010,04,03,15,34,11.60
2010,04,03,15,35,11.70
2010,04,03,15,36,6.70
2010,04,03,15,37,9.30
2010,04,03,15,38,11.90
2010,04,03,15,39,8.30
2010,04,03,15,40,8.20
2010,04,03,15,41,12.20
2010,04,03,15,42,9.30
2010,04,03,15,43,10.10
2010,04,03,15,44,9.60
2010,04,03,15,45,10.70
2010,04,03,15,46,9.00
2010,04,03,15,47,9.70
2010,04,03,15,48,8.50
2010,04,03,15,49,7.70
2010,04,03,15,50,10.70
2010,04,03,15,51,12.20
2010,04,03,15,52,9.60
2010,04,03,15,53,10.00
2010,04,03,15,54,7.50
2010,04,03,15,55,8.80
2010,04,03,15,56,14.20
2010,04,03,15,57,11.00
2010,04,03,15,58,9.20
2010,04,03,15,59,10.20
2010,04,03,16,00,10.70
2010,04,03,16,01,11.30
2010,04,03,16,02,9.40
2010,04,03,16,03,6.60
2010,04,03,16,04,6.40
2010,04,03,16,05,8.60
2010,04,03,16,06,10.50
2010,04,03,16,07,6.10
2010,04,03,16,08,7.30
2010,04,03,16,09,5.30
2010,04,03,16,10,8.50
2010,04,03,16,11,7.60
2010,04,03,16,12,11.40
2010,04,03,16,13,11.60
2010,04,03,16,14,10.40
2010,04,03,16,15,10.90
2010,04,03,16,16,7.00
2010,04,03,16,17,9.00
2010,04,03,16,18,10.50
2010,04,03,16,19,9.90
2010,04,03,16,20,8.20
2010,04,03,16,21,8.30
2010,04,03,16,22,6.70
2010,04,03,16,23,10.50
2010,04,03,16,24,14.00
2010,04,03,16,25,12.80
2010,04,03,16,26,9.90
2010,04,03,16,27,9.60
2010,04,03,16,28,7.00
2010,04,03,16,29,6.70
2010,04,03,16,30,6.50
2010,04,03,16,31,8.70
2010,04,03,16,32,13.00
2010,04,03,16,33,10.80
2010,04,03,16,34,9.20
2010,04,03,16,35,10.80
2010,04,03,16,36,9.90
2010,04,03,16,37,10.80
2010,04,03,16,38,7.90
2010,04,03,16,39,7.90
2010,04,03,16,40,7.00
2010,04,03,16,41,7.20
2010,04,03,16,42,4.70
2010,04,03,16,43,8.10
2010,04,03,16,44,3.20
2010,04,03,16,45,3.10
2010,04,03,16,46,3.90
2010,04,03,16,47,8.20
2010,04,03,16,48,7.30
2010,04,03,16,49,10.60
2010,04,03,16,50,7.20
2010,04,03,16,51,3.80
2010,04,03,16,52,5.60
2010,04,03,16,53,9.30
2010,04,03,16,54,11.00
2010,04,03,16,55,7.30
2010,04,03,16,56,8.40
2010,04,03,16,57,7.80
2010,04,03,16,58,5.10
2010,04,03,16,59,6.50
2010,04,03,17,00,6.60
2010,04,03,17,01,6.90
2010,04,03,17,02,9.70
2010,04,03,17,03,11.60
2010,04,03,17,04,11.00
2010,04,03,17,05,8.90
2010,04,03,17,06,4.70
2010,04,03,17,07,2.70
2010,04,03,17,08,8.60
2010,04,03,17,09,5.30
2010,04,03,17,10,7.20
2010,04,03,17,11,7.60
2010,04,03,17,12,5.60
2010,04,03,17,13,5.40
2010,04,03,17,14,7.70
2010,04,03,17,15,6.50
2010,04,03,17,16,7.40
2010,04,03,17,17,6.30
2010,04,03,17,18,6.70
2010,04,03,17,19,7.60
2010,04,03,17,20,9.10
2010,04,03,17,21,6.40
2010,04,03,17,22,5.60
2010,04,03,17,23,7.80
2010,04,03,17,24,7.10
2010,04,03,17,25,7.00
2010,04,03,17,26,6.50
2010,04,03,17,27,7.30
2010,04,03,17,28,6.20
2010,04,03,17,29,8.00
2010,04,03,17,30,11.00
2010,04,03,17,31,8.00
2010,04,03,17,32,7.90
2010,04,03,17,33,5.50
2010,04,03,17,34,7.00
2010,04,03,17,35,6.90
2010,04,03,17,36,6.80
2010,04,03,17,37,6.90
2010,04,03,17,38,5.20
2010,04,03,17,39,5.00
2010,04,03,17,40,6.10